Weather History for Fort Worth Spinks, TX

Change the Weather History Date:

Thursday, January 26, 2012

  Actual Average (KDFW) Record (KDFW)
Temperature  
Mean Temperature 50 °F 47 °F  
Max Temperature 60 °F 57 °F 82 °F (1953)
Min Temperature 39 °F 36 °F 12 °F (1904)
Degree Days  
Heating Degree Days 16 18  
Month to date heating degree days 504  
Since 1 July heating degree days 1416  
Cooling Degree Days 0 0  
Month to date cooling degree days 0  
Year to date cooling degree days 0  
Moisture  
Dew Point 41 °F    
Average Humidity 81    
Maximum Humidity 100    
Minimum Humidity 42    
Precipitation  
Precipitation 0.30 in 0.08 in 1.46 in (1916)
Month to date precipitation 1.74  
Year to date precipitation 1.74  
Snow  
Snow 0.00 in 0.00 in T in (1963)
Month to date snowfall 0.2  
Since 1 July snowfall 0.5  
Snow Depth -    
Sea Level Pressure  
Sea Level Pressure 29.97 in    
Wind  
Wind Speed 8 mph (WNW)    
Max Wind Speed 18 mph    
Max Gust Speed 25 mph    
Visibility 6 miles    
Events Rain    
T = Trace of Precipitation, MM = Missing Value Source: NWS Daily Summary

Daily Weather History Graph

Daily Weather History Graph

Search for Another Location

Airport:

Trip Planner

Search our weather history database for the weather conditions in past years. The results will help you decide how hot, cold, wet, or windy it might be!

Date:

Astronomy

Jan. 26, 2012 Rise Set
Actual Time 7:27 AM CST 5:56 PM CST
Civil Twilight 7:01 AM CST 6:22 PM CST
Nautical Twilight 6:31 AM CST 6:52 PM CST
Astronomical Twilight 6:02 AM CST 7:21 PM CST
Moon 9:10 AM CST (1/26) 9:33 PM CST (1/26)
Length of Visible Light 11h 20m
Length of Day
10h 28m
Waxing Crescent, 12% of the Moon is Illuminated
Jan 26
Waxing Crescent
Jan 30
First Quarter
Feb 7
Full
Feb 14
Last Quarter
Feb 21
New

Hourly Weather History & Observations

Time (CST) Temp. Windchill Dew Point Humidity Pressure Visibility Wind Dir Wind Speed Gust Speed Precip Events Conditions
12:15 AM 46.4 °F 43.5 °F 44.6 °F 93% 29.91 in 1.5 mi NNW 5.8 mph - 0.01 in   Drizzle
12:35 AM 46.4 °F - 46.4 °F 100% 29.91 in 1.8 mi Calm Calm - 0.01 in   Drizzle
12:55 AM 46.4 °F 43.5 °F 44.6 °F 93% 29.91 in 1.0 mi WNW 5.8 mph - 0.02 in   Unknown
1:15 AM 46.4 °F 44.3 °F 44.6 °F 93% 29.90 in 1.2 mi WNW 4.6 mph - N/A   Drizzle
1:35 AM 46.4 °F 42.9 °F 44.6 °F 93% 29.90 in 1.2 mi West 6.9 mph - N/A   Light Drizzle
1:55 AM 46.4 °F 42.9 °F 44.6 °F 93% 29.90 in 1.0 mi WNW 6.9 mph - N/A   Unknown
2:15 AM 46.4 °F 41.9 °F 44.6 °F 93% 29.90 in 1.0 mi WNW 9.2 mph - N/A Rain Light Rain
2:35 AM 46.4 °F 41.5 °F 44.6 °F 93% 29.90 in 1.5 mi WNW 10.4 mph - N/A   Drizzle
2:55 AM 46.4 °F 41.5 °F 44.6 °F 93% 29.91 in 1.2 mi WNW 10.4 mph - 0.02 in Rain Rain
3:15 AM 46.4 °F 41.1 °F 44.6 °F 93% 29.92 in 1.8 mi WNW 11.5 mph - 0.04 in Rain Rain
3:35 AM 46.4 °F 41.5 °F 44.6 °F 93% 29.92 in 1.8 mi NW 10.4 mph 16.1 mph 0.09 in   Unknown
3:55 AM 46.4 °F 41.1 °F 44.6 °F 93% 29.91 in 2.0 mi NW 11.5 mph - 0.13 in   Unknown
4:15 AM 46.4 °F 41.1 °F 44.6 °F 93% 29.92 in 2.5 mi NW 11.5 mph - 0.01 in   Overcast
4:35 AM 46.4 °F 41.1 °F 44.6 °F 93% 29.92 in 3.0 mi NW 11.5 mph - 0.02 in Rain Rain
4:55 AM 44.6 °F 38.8 °F 42.8 °F 93% 29.92 in 3.0 mi NW 11.5 mph - 0.03 in Rain Light Rain
5:15 AM 44.6 °F 38.1 °F 42.8 °F 93% 29.92 in 4.0 mi NW 13.8 mph - N/A Rain Light Rain
5:35 AM 44.6 °F 38.8 °F 42.8 °F 93% 29.92 in 4.0 mi WNW 11.5 mph 16.1 mph N/A   Overcast
5:55 AM 44.6 °F 38.8 °F 42.8 °F 93% 29.93 in 4.0 mi WNW 11.5 mph 17.3 mph N/A   Drizzle
6:15 AM 44.6 °F 38.1 °F 42.8 °F 93% 29.94 in 3.0 mi WNW 13.8 mph - 0.01 in Rain Light Rain
6:35 AM 44.6 °F 38.8 °F 42.8 °F 93% 29.95 in 2.5 mi NW 11.5 mph 17.3 mph 0.04 in   Unknown
6:55 AM 44.6 °F 38.4 °F 42.8 °F 93% 29.96 in 3.0 mi NW 12.7 mph - 0.08 in   Unknown
7:15 AM 44.6 °F 39.2 °F 42.8 °F 93% 29.97 in 3.0 mi WNW 10.4 mph - 0.01 in Rain Light Rain
7:35 AM 44.6 °F 40.2 °F 41.0 °F 87% 29.96 in 5.0 mi WNW 8.1 mph - 0.02 in Rain Light Rain
7:48 AM 46.4 °F 42.4 °F 42.8 °F 87% 29.96 in 5.0 mi West 8.1 mph - N/A   Drizzle
8:45 AM 46.4 °F 40.4 °F 42.8 °F 87% 29.97 in 7.0 mi WNW 13.8 mph - N/A   Scattered Clouds
9:48 AM 48.2 °F - 39.2 °F 71% 29.99 in 10.0 mi NW 11.5 mph 19.6 mph N/A   Clear
10:51 AM 51.8 °F - 39.2 °F 62% 30.00 in 10.0 mi NW 16.1 mph - N/A   Clear
12:48 PM 57.2 °F - 35.6 °F 44% 29.96 in 10.0 mi NW 17.3 mph - N/A   Clear
1:52 PM 60.8 °F - 37.4 °F 42% 29.95 in 10.0 mi NNW 16.1 mph - N/A   Clear
2:51 PM 60.8 °F - 39.2 °F 45% 29.98 in 10.0 mi NW 18.4 mph 25.3 mph N/A   Clear
3:48 PM 59.0 °F - 39.2 °F 48% 29.99 in 10.0 mi NW 15.0 mph 21.9 mph N/A   Clear
4:46 PM 57.2 °F - 37.4 °F 48% 30.01 in 10.0 mi NW 13.8 mph - N/A   Clear
5:47 PM 53.6 °F - 39.2 °F 58% 30.02 in 10.0 mi NNW 6.9 mph - N/A   Clear
6:49 PM 51.8 °F - 39.2 °F 62% 30.03 in 20.0 mi NW 5.8 mph - N/A   Clear
7:49 PM 50.0 °F - 37.4 °F 62% 30.04 in 20.0 mi West 3.5 mph - N/A   Clear
8:55 PM 44.6 °F 43.1 °F 37.4 °F 76% 30.05 in 10.0 mi West 3.5 mph - N/A   Clear
9:15 PM 44.6 °F 42.2 °F 37.4 °F 76% 30.05 in 10.0 mi West 4.6 mph - N/A   Clear
9:35 PM 44.6 °F 43.1 °F 35.6 °F 71% 30.05 in 10.0 mi WSW 3.5 mph - N/A   Clear
10:15 PM 41.0 °F - 37.4 °F 87% 30.06 in 10.0 mi Calm Calm - N/A   Clear
10:35 PM 41.0 °F - 35.6 °F 81% 30.07 in 10.0 mi Calm Calm - N/A   Clear
10:55 PM 41.0 °F 39.0 °F 35.6 °F 81% 30.08 in 10.0 mi SW 3.5 mph - N/A   Clear
11:15 PM 39.2 °F - 35.6 °F 87% 30.09 in 10.0 mi Calm Calm - N/A   Clear
11:35 PM 39.2 °F - 35.6 °F 87% 30.09 in 10.0 mi Calm Calm - N/A   Clear
11:55 PM 42.8 °F - 35.6 °F 76% 30.08 in 10.0 mi Calm Calm - N/A   Clear